Location: Cossonay
(46.5833°N, 6.4167°E)
Time: 11:05:55
(UTC+00:00)

STARLINK-1257 - Pass Details

Date: 08 October 2020
Orbit: 549 x 550 km, 53.0° (Epoch: 21 October)

Event Time Altitude Azimuth Distance (km) Brightness Sun altitude
Exits shadow 02:49:00 30° 72° (ENE) 1,005 5.4 -29.9°
Drops below altitude 10° 02:51:12 10° 64° (ENE) 1,825 7.2 -29.6°
Sets 02:53:26 0° 61° (ENE) 2,721 8.4 -29.2°
